This is the latest recevied weather packets stored in our database for station/object KB2FWP. If no packets are shown the sender has not sent any weather packets the latest 10 day(s).
| Time | Temp. | Humidity | Pressure | Rain* | Wind** | Luminosity | Snow |
|---|---|---|---|---|---|---|---|
| 1777635049 | 8.33° C | 69% | 1014.4 hPa | 0 mm | - | - | - |
| 1777634144 | 8.33° C | 71% | 1014.3 hPa | 0 mm | - | - | - |
| 1777633242 | 7.78° C | 73% | 1014.2 hPa | 0 mm | - | - | - |
| 1777632354 | 7.22° C | 73% | 1014.1 hPa | 0 mm | - | - | - |
| 1777631438 | 7.22° C | 73% | 1013.8 hPa | 0 mm | - | - | - |
| 1777630534 | 7.22° C | 72% | 1013.7 hPa | 0 mm | - | - | - |
| 1777629666 | 7.78° C | 70% | 1013.3 hPa | 0 mm | - | - | - |
| 1777628729 | 7.78° C | 70% | 1013 hPa | 0 mm | - | - | - |
| 1777627825 | 7.78° C | 69% | 1012.8 hPa | 0 mm | - | - | - |
| 1777626926 | 7.78° C | 68% | 1012.7 hPa | 0 mm | - | - | - |
| 1777626022 | 7.78° C | 69% | 1012.7 hPa | 0 mm | - | - | - |
| 1777625119 | 7.78° C | 70% | 1012.7 hPa | 0 mm | - | - | - |
| 1777624223 | 7.78° C | 71% | 1012.5 hPa | 0 mm | - | - | - |
| 1777623315 | 7.78° C | 72% | 1012.7 hPa | 0 mm | - | - | - |
| 1777622412 | 7.78° C | 73% | 1012.5 hPa | 0 mm | - | - | - |
| 1777621511 | 8.33° C | 73% | 1012.4 hPa | 0 mm | - | - | - |
| 1777620615 | 8.33° C | 73% | 1012.2 hPa | 0 mm | - | - | - |
| 1777619706 | 8.33° C | 73% | 1012 hPa | 0 mm | - | - | - |
| 1777618804 | 8.89° C | 73% | 1012 hPa | 0 mm | - | - | - |
| 1777617902 | 9.44° C | 73% | 1012 hPa | 0 mm | - | - | - |
| 1777617067 | 9.44° C | 73% | 1012 hPa | 0 mm | - | - | - |
| 1777616165 | 10° C | 72% | 1012 hPa | 0 mm | - | - | - |
| 1777615257 | 10° C | 71% | 1011.8 hPa | 0 mm | - | - | - |
| 1777614353 | 10.56° C | 71% | 1011.5 hPa | 0 mm | - | - | - |
| 1777613451 | 10.56° C | 71% | 1011.7 hPa | 0 mm | - | - | - |
* Rain latest hour (hover to see other rain measurements)
** Current wind speed in m/s (hover to see current wind gust speed)